Location: Grossmotten
(48.5500°N, 15.3833°E)
Time: 06:57:28
(UTC+00:00)

Daily predictions for brighter satellites

Satellite Brightness Start Highest point End
(mag) Time Altitude Azimuth Time Altitude Azimuth Time Altitude Azimuth
Cosmos 1939 Rocket 3.7 16:06:21 10° SE 16:09:59 31° ENE 16:13:36 10° N
Cosmos 1908 4.0 16:06:53 10° NNW 16:10:42 59° W 16:14:31 10° S
NOSS 3-4 (A) 4.0 16:06:04 10° WSW 16:11:52 53° NW 16:18:10 10° NE
NOSS 3-4 (C) 4.0 16:06:13 10° WSW 16:12:01 54° NW 16:18:19 10° NE
Cosmos 1674 3.6 16:13:16 10° SSW 16:17:01 53° WNW 16:20:48 10° N
Cosmos 2279 Rocket 4.2 16:11:47 10° N 16:17:54 51° ENE 16:23:58 10° SSE
Cosmos 1315 Rocket 2.8 16:15:42 10° N 16:19:38 60° ENE 16:23:36 10° SSE
Cosmos 1503 Rocket 4.1 16:16:25 10° SSW 16:21:47 82° ESE 16:27:12 10° NNE
CZ-4 R/B 2.8 16:19:27 10° ESE 16:22:19 19° ENE 16:25:11 10° NNE
Cosmos 2227 4.2 16:17:18 10° SSW 16:22:54 74° ESE 16:28:36 10° NNE
Cosmos 1536 Rocket 4.0 16:19:06 10° SSW 16:23:27 66° WNW 16:27:53 10° N
COSMO-SKYMED 1 3.6 16:21:14 10° NE 16:24:54 26° E 16:28:34 10° SSE
Cosmos 2227 Rocket 4.0 16:21:31 10° W 16:26:11 26° NW 16:30:51 10° N
ATLAS 2AS CENTAUR R/B 3.5 16:21:32 10° WSW 16:29:24 62° NW 16:37:07 10° NE
Cosmos 1634 Rocket 4.1 16:25:22 10° N 16:31:38 86° W 16:37:55 10° S
Cosmos 1844 Rocket 3.9 16:29:26 10° SSE 16:33:42 22° ESE 16:37:42 11° NE
CZ-2C R/B 3.5 16:29:57 10° SE 16:34:56 42° ENE 16:40:11 10° N
Okean-O 3.6 16:33:16 10° ESE 16:36:54 25° ENE 16:40:33 10° N
H-2A R/B 3.3 16:33:00 10° S 16:36:55 54° W 16:41:02 10° NNW
H-2A R/B 2.9 16:33:48 10° ESE 16:37:58 27° ENE 16:42:13 10° N
CZ-4B R/B 2.1 16:36:06 10° NNE 16:39:14 34° E 16:42:18 10° SSE
Okean O Rocket 1.8 16:35:18 10° S 16:39:44 78° WSW 16:44:12 10° NNW
SeaSat 1 4.3 16:36:44 10° N 16:40:48 26° NW 16:44:50 10° W
Cosmos 773 Rocket 4.0 16:36:30 10° NNW 16:41:42 89° ENE 16:46:50 10° SSE
SMAP 3.8 16:37:13 10° S 16:41:47 58° W 16:46:24 10° NNW
Cosmos 1626 2.9 16:39:15 10° SSW 16:42:52 54° WNW 16:46:31 10° N
CZ-4B R/B 3.7 16:38:18 10° S 16:43:47 67° WSW 16:49:26 10° NNW
Cosmos 1689 Rocket 4.2 16:48:09 12° ESE 16:48:09 12° ESE 16:48:37 10° SE
Aureole 2 Rocket 3.6 16:45:16 10° SSE 16:47:31 19° ESE 16:48:02 18° E
Cosmos 2297 Rocket 4.4 16:47:28 10° WNW 16:51:03 17° NW 16:54:39 10° N
Meteor 2-10 Rocket 3.6 16:45:51 10° N 16:51:22 58° ENE 16:56:36 10° SSE
CZ-2D R/B 3.2 16:52:40 10° SSE 16:56:29 61° ENE 17:00:17 10° N
Cosmos 1606 Rocket 3.8 16:52:09 10° NNW 16:56:31 74° W 17:00:55 10° S
OPS 8737 4.4 16:53:27 10° NW 16:56:36 90° SW 17:00:40 10° SE
H-2A R/B 2.6 16:53:17 10° N 16:57:43 62° WNW 17:02:02 10° SSW
USA 234 3.8 16:52:59 16° ENE 16:57:57 44° N 17:04:05 10° WNW
CSL-04 Rocket 4.4 16:54:12 10° ESE 16:58:51 30° ENE 17:03:34 10° N
YAOGAN 1 3.0 16:55:10 10° SE 16:59:08 37° ENE 17:03:08 10° N
Cosmos 1892 Rocket 3.5 16:55:33 10° S 16:59:49 63° E 17:04:08 10° NNE
ATLAS 5 CENTAUR R/B 2.0 16:58:12 10° WSW 17:02:13 56° NW 17:06:04 14° NE
Meteor 2-1 Rocket 4.3 16:59:01 10° N 17:04:27 49° ENE 17:09:47 10° SSE
Helios 1A Rocket 3.5 17:01:15 10° SE 17:04:59 34° ENE 17:08:45 10° N
Iridium 4 Rocket 4.5 17:01:02 10° NNE 17:05:56 28° ENE 17:10:32 10° SE
MOS 1 Rocket 3.2 17:02:58 10° NNE 17:07:13 51° E 17:11:22 10° S
RESURS DK-1 4.0 17:03:52 10° WSW 17:07:35 31° NW 17:11:18 10° NNE
Cosmos 2228 4.0 17:04:21 10° NNW 17:08:28 48° W 17:12:35 10° SSW
Cosmos 1812 Rocket 4.5 17:07:47 10° NNE 17:11:31 26° ENE 17:11:36 26° ENE
SKYMED 2 3.5 17:08:47 10° NNE 17:13:09 78° ESE 17:17:30 10° S
Cosmos 1538 Rocket 4.0 17:10:11 10° NNW 17:15:23 83° WSW 17:20:33 10° SSE
Aureole 3 3.1 17:11:59 10° N 17:15:30 44° ENE 17:18:32 10° SSE
CZ-4C R/B 3.6 17:11:21 10° W 17:16:12 33° NNW 17:21:18 12° NNE
SJ-11-01 4.4 17:12:15 10° SE 17:16:45 48° ENE 17:21:16 10° N
SJ 16-02 1.7 17:13:08 10° S 17:17:15 40° ESE 17:18:57 28° NE
CZ-3B R/B 1.8 17:15:04 10° NW 17:17:27 58° NNE 17:20:09 24° ESE
Nadezhda 4 Rocket 4.0 17:12:22 10° S 17:18:30 61° E 17:24:36 10° NNE
Cosmos 1777 Rocket 4.0 17:15:21 10° SSW 17:20:38 84° WNW 17:25:58 10° NNE
Cosmos 2263 Rocket 3.2 17:17:29 10° SW 17:22:53 44° NW 17:28:19 10° NNE
Cosmos 1455 2.0 17:22:16 10° N 17:26:04 66° E 17:29:52 10° SSE
Cosmos 2058 Rocket 3.4 17:23:29 10° NNW 17:27:59 71° W 17:32:28 10° S
COSMOS 2406 4.1 17:27:14 10° NNW 17:32:15 29° NE 17:32:43 29° NE
Cosmos 1703 4.4 17:29:25 10° SSE 17:31:36 27° SE 17:31:36 27° SE
X-37B 2.4 17:30:54 10° SSW 17:33:14 22° SSE 17:33:14 22° SSE
Meteor 2-13 Rocket 4.3 17:30:52 10° S 17:36:58 79° E 17:43:09 10° NNE
ARGOS 3.1 17:32:11 10° SSE 17:37:27 60° ENE 17:42:44 10° N
Cosmos 44 4.4 17:37:10 10° S 17:40:17 27° SE 17:40:17 27° SE
Okean 1-7 Rocket 3.8 17:36:51 10° SSW 17:41:24 75° W 17:46:00 10° N
Lacrosse 5 1.9 17:37:16 10° NW 17:42:20 78° SW 17:45:00 28° SE
CREW DRAGON DEMO-1 DEB 3.3 17:39:32 10° WNW 17:41:52 53° WNW 17:41:52 53° WNW
NOSS 3-1 (C) 4.1 17:35:28 10° NW 17:42:37 59° NE 17:47:11 28° ESE
ERS-2 2.2 17:42:03 29° N 17:43:47 76° WNW 17:47:24 10° SSW
CZ-2C R/B 3.1 17:45:50 38° ESE 17:45:50 38° ESE 17:50:45 10° SSE
ISS -2.8 17:42:22 10° SW 17:45:00 39° S 17:45:00 39° S
PSLV R/B 3.9 17:43:31 22° NNE 17:46:10 89° ESE 17:50:23 10° SSW
CSL-04 Debris 4.0 17:42:09 10° SSE 17:47:31 73° ENE 17:52:55 10° NNW
COSMOS 2455 3.0 17:44:13 10° SW 17:50:14 74° NW 17:54:02 24° NNE
Cosmos 1553 Rocket 4.4 17:45:14 10° N 17:51:16 40° ENE 17:51:29 40° ENE
Cosmos 1626 Rocket 3.4 17:48:13 10° S 17:52:35 79° E 17:54:01 42° NNE
Cosmos 1844 3.6 17:49:21 10° SSW 17:54:59 73° ESE 17:57:10 39° NE
Cosmos 1833 Rocket 3.5 17:50:18 10° NNW 17:54:41 33° NNE 17:54:41 33° NNE
Cosmos 2026 Rocket 3.9 17:49:39 10° SSE 17:55:34 56° E 18:01:37 10° NNE
USA 281 4.3 17:56:41 25° NE 17:56:41 25° NE 18:01:12 10° N
Cosmos 990 Rocket 4.2 17:51:39 10° S 17:56:18 49° ESE 17:56:18 49° ESE
CZ-4 R/B 2.3 17:53:03 10° S 17:57:02 49° W 18:00:59 10° NNW
Cosmos 2082 Rocket 3.6 17:52:40 10° N 17:55:55 22° NNE 17:55:55 22° NNE
USA 229 DEB 4.0 17:52:29 10° NW 17:59:35 56° NE 18:01:49 42° E
USA 229 4.0 17:52:36 10° NW 17:59:40 56° NE 18:01:52 42° E
COSMO-SKYMED 1 4.0 17:57:09 10° N 18:01:09 36° WNW 18:05:07 10° SW
SL-08 RB Rocket 3.9 18:05:15 54° NNE 18:05:15 54° NNE 18:08:51 10° N
DMSP B5D1-3 4.4 18:01:31 27° NNE 18:04:24 86° ESE 18:09:30 10° SSW
USA 267 3.7 18:04:12 37° SE 18:04:35 38° SE 18:10:34 10° SSW
CZ-4B R/B 4.2 18:08:52 10° NNW 18:11:12 18° WNW 18:13:30 10° WSW
Okean-O 3.9 18:09:02 10° SSW 18:13:12 40° W 18:17:24 10° NNW
NOSS 3-1 (A) 4.0 18:08:00 10° NW 18:15:10 60° NE 18:16:57 50° E
Cosmos 1844 Rocket 2.9 18:11:26 10° SW 18:17:04 67° WNW 18:19:24 36° NNE
H-2A R/B 2.9 18:12:21 10° S 18:17:09 47° W 18:22:05 10° NNW
Cosmos 2195 Rocket 4.5 18:14:53 10° S 18:21:14 85° W 18:27:37 10° N
ATLAS 2AS CENTAUR R/B 4.3 18:15:11 10° WNW 18:21:56 30° NNW 18:25:30 21° NNE
Meteor 2-8 Rocket 4.5 18:16:27 10° NNW 18:22:33 78° W 18:28:39 10° S
Meteor 2-15 4.3 18:17:06 10° N 18:23:17 78° ENE 18:24:42 55° SSE
Cosmos 1680 Rocket 3.8 18:19:16 10° NNW 18:24:28 64° WSW 18:26:36 35° S
Cosmos 1898 Rocket 4.0 18:19:55 10° SSW 18:23:42 47° S 18:23:42 47° S
Cosmos 1627 Rocket 4.5 18:24:55 10° SSW 18:31:06 80° W 18:37:24 10° N
Cosmos 2098 Rocket 4.2 18:25:18 10° S 18:32:24 84° E 18:39:53 10° N
Cosmos 1818 3.9 18:28:58 10° SW 18:34:19 59° NW 18:34:53 56° NNW
USA 234 3.1 18:40:20 70° NE 18:40:28 70° NNE 18:47:00 10° NW
ATLAS 5 CENTAUR R/B 3.9 18:44:49 10° WNW 18:47:37 18° NNW 18:47:37 18° NNW
Cosmos 2344 4.3 18:45:36 10° NW 18:54:52 87° SW 18:59:35 44° SE
SJ 16-02 3.3 18:52:18 10° WSW 18:55:59 25° WNW 18:55:59 25° WNW
CZ-4C R/B 4.2 19:02:08 10° NW 19:06:30 22° N 19:06:30 22° N
COSMOS 2406 4.4 19:11:16 10° NNW 19:14:49 37° NW 19:14:49 37° NW
Lacrosse 5 4.3 19:21:23 10° W 19:24:15 17° WSW 19:24:15 17° WSW
CZ-2C R/B 4.3 19:27:19 32° W 19:27:19 32° W 19:30:54 10° SW
Cosmos 2082 Rocket 4.4 19:36:16 10° NNW 19:37:48 19° NNW 19:37:48 19° NNW
